FW93366 Weather Reports


time (UTC)temp
C
wind
direction
speed
KPH
gust
KPH
rain 1hr
cm
rain 24hr
cm
rain mn
cm
humidity
%
barometer
mb
20260510043041 17 0 0.0 0.0 0.00 0.00 0.00 40 1019.0
20260510041546 18 0 0.0 0.0 0.00 0.00 0.00 39 1018.8
20260510040048 18 0 0.0 0.0 0.00 0.00 0.00 37 1018.7
20260510034552 18 0 0.0 0.0 0.00 0.00 0.00 36 1018.5
20260510033039 19 0 0.0 0.0 0.00 0.00 0.00 35 1018.1
20260510031554 20 0 0.0 1.6 0.00 0.00 0.00 35 1017.9
20260510030048 20 0 0.0 3.2 0.00 0.00 0.00 34 1017.7
20260510024545 21 227 1.6 6.4 0.00 0.00 0.00 34 1017.5
20260510023044 23 238 3.2 8.0 0.00 0.00 0.00 30 1017.4
20260510021539 26 0 1.6 9.7 0.00 0.00 0.00 20 1017.3
20260510020038 26 0 0.0 8.0 0.00 0.00 0.00 21 1017.3
20260510014546 26 352 3.2 8.0 0.00 0.00 0.00 16 1017.2
20260510013048 26 351 3.2 8.0 0.00 0.00 0.00 18 1017.4
20260510011544 27 300 1.6 12.9 0.00 0.00 0.00 16 1017.4
20260510010036 27 290 4.8 14.5 0.00 0.00 0.00 16 1017.4
20260510004545 27 0 4.8 12.9 0.00 0.00 0.00 19 1017.6
20260510003041 27 0 1.6 11.3 0.00 0.00 0.00 17 1017.5
20260510001546 27 319 6.4 16.1 0.00 0.00 0.00 17 1017.6
20260510000046 27 215 3.2 11.3 0.00 0.00 0.00 20 1017.7
20260509234546 26 216 3.2 17.7 0.00 0.00 0.00 18 1017.7
20260509233043 27 246 8.0 14.5 0.00 0.00 0.00 19 1017.7
20260509231538 27 323 3.2 8.0 0.00 0.00 0.00 18 1017.9
20260509230047 26 5 3.2 9.7 0.00 0.00 0.00 18 1018.0
20260509224547 26 340 0.0 11.3 0.00 0.00 0.00 18 1018.2
20260509223042 26 44 3.2 12.9 0.00 0.00 0.00 18 1018.3
20260509221539 25 180 1.6 16.1 0.00 0.00 0.00 22 1018.5
20260509220052 25 252 4.8 19.3 0.00 0.00 0.00 23 1018.8
20260509214546 25 272 8.0 17.7 0.00 0.00 0.00 27 1019.1
20260509213044 25 237 9.7 20.9 0.00 0.00 0.00 24 1019.2
20260509211546 24 190 8.0 16.1 0.00 0.00 0.00 25 1019.3
20260509210041 24 291 4.8 12.9 0.00 0.00 0.00 23 1019.3
20260509204552 23 261 6.4 20.9 0.00 0.00 0.00 27 1019.5
20260509203043 23 251 6.4 16.1 0.00 0.00 0.00 28 1019.7
20260509201544 23 192 3.2 16.1 0.00 0.00 0.00 28 1019.7
20260509200044 23 189 4.8 12.9 0.00 0.00 0.00 29 1019.8
20260509194539 22 302 4.8 14.5 0.00 0.00 0.00 30 1020.2
20260509193047 22 207 4.8 17.7 0.00 0.00 0.00 29 1020.5
20260509191546 22 337 4.8 8.0 0.00 0.00 0.00 27 1020.6
20260509190053 22 313 3.2 14.5 0.00 0.00 0.00 29 1020.8
20260509184558 21 309 4.8 19.3 0.00 0.00 0.00 31 1021.0
20260509183040 21 0 0.0 8.0 0.00 0.00 0.00 30 1021.1
20260509181545 21 226 1.6 14.5 0.00 0.00 0.00 31 1021.3
20260509180046 21 337 3.2 8.0 0.00 0.00 0.00 33 1021.4
20260509174546 20 0 3.2 9.7 0.00 0.00 0.00 34 1021.6
20260509173039 19 35 3.2 9.7 0.00 0.00 0.00 40 1021.6
20260509171538 18 10 1.6 9.7 0.00 0.00 0.00 42 1021.6
20260509170053 18 229 1.6 6.4 0.00 0.00 0.00 49 1021.8
20260509164546 17 0 3.2 6.4 0.00 0.00 0.00 47 1021.7
20260509163054 17 0 0.0 3.2 0.00 0.00 0.00 48 1021.8
20260509161541 16 0 0.0 4.8 0.00 0.00 0.00 50 1021.8
20260509160039 15 0 1.6 6.4 0.00 0.00 0.00 56 1021.9
20260509154544 13 104 0.0 4.8 0.00 0.00 0.00 59 1021.8
20260509153045 12 0 0.0 4.8 0.00 0.00 0.00 65 1021.9
20260509151550 11 0 0.0 6.4 0.00 0.00 0.00 68 1021.9
20260509150040 11 0 0.0 0.0 0.00 0.00 0.00 68 1022.0
20260509144540 9 0 0.0 0.0 0.00 0.00 0.00 71 1022.0
20260509143051 8 0 0.0 0.0 0.00 0.00 0.00 73 1021.8
20260509141558 8 0 0.0 0.0 0.00 0.00 0.00 71 1021.7
20260509140057 7 0 0.0 0.0 0.00 0.00 0.00 71 1021.7
20260509134543 6 0 0.0 0.0 0.00 0.00 0.00 77 1021.6
20260509133047 6 0 0.0 0.0 0.00 0.00 0.00 76 1021.4
20260509131544 5 0 0.0 0.0 0.00 0.00 0.00 79 1021.3
20260509130048 5 0 0.0 0.0 0.00 0.00 0.00 78 1021.2
20260509124548 6 0 0.0 0.0 0.00 0.00 0.00 78 1021.0
20260509123052 6 0 0.0 0.0 0.00 0.00 0.00 79 1021.0
20260509121543 6 0 0.0 1.6 0.00 0.00 0.00 77 1020.9
20260509120048 7 0 0.0 3.2 0.00 0.00 0.00 73 1020.8
20260509114544 7 0 1.6 3.2 0.00 0.00 0.00 75 1020.7
20260509113103 6 0 0.0 1.6 0.00 0.00 0.00 76 1020.7
20260509111547 7 0 0.0 0.0 0.00 0.00 0.00 74 1020.7
20260509110041 7 0 0.0 0.0 0.00 0.00 0.00 72 1020.6
20260509104555 7 0 0.0 1.6 0.00 0.00 0.00 71 1020.6
20260509103056 8 0 0.0 4.8 0.00 0.00 0.00 71 1020.5
20260509101546 8 0 0.0 0.0 0.00 0.00 0.00 70 1020.5
20260509100059 8 0 0.0 0.0 0.00 0.00 0.00 66 1020.4
20260509094548 8 173 0.0 3.2 0.00 0.00 0.00 68 1020.4
20260509093043 9 0 0.0 0.0 0.00 0.00 0.00 66 1020.4
20260509091543 9 0 0.0 3.2 0.00 0.00 0.00 63 1020.4
20260509090039 10 0 0.0 0.0 0.00 0.00 0.00 58 1020.3
20260509084545 11 0 0.0 4.8 0.00 0.00 0.00 57 1020.3
20260509083043 11 0 0.0 4.8 0.00 0.00 0.00 54 1020.2
20260509081543 11 0 0.0 3.2 0.00 0.00 0.00 51 1020.3
20260509080046 11 0 0.0 1.6 0.00 0.00 0.00 55 1020.2
20260509074545 11 346 1.6 8.0 0.00 0.00 0.00 57 1020.4
20260509073047 11 333 0.0 6.4 0.00 0.00 0.00 57 1020.3
20260509071546 12 0 0.0 3.2 0.00 0.00 0.00 52 1020.1
20260509070040 12 86 3.2 9.7 0.00 0.00 0.00 50 1019.9
20260509064542 12 79 1.6 3.2 0.00 0.00 0.00 53 1020.0
20260509063043 12 0 0.0 6.4 0.00 0.00 0.00 55 1020.0
20260509061556 12 0 0.0 3.2 0.00 0.00 0.00 55 1020.0
20260509060041 12 0 0.0 0.0 0.00 0.00 0.00 57 1019.9
20260509054550 13 0 0.0 4.8 0.00 0.00 0.00 54 1019.8
20260509053056 13 0 0.0 4.8 0.00 0.00 0.00 54 1019.8
20260509051550 13 211 3.2 6.4 0.00 0.00 0.00 52 1019.7
20260509050050 13 0 0.0 4.8 0.00 0.00 0.00 52 1019.5
20260509044547 14 0 0.0 0.0 0.00 0.00 0.00 51 1019.5